{"data":{"norad_id":58092,"intl_designator":"2023-160T","name":"STARLINK-30615","alt_names":[],"object_type":"PAYLOAD","status":"ACTIVE","operator":null,"country":"US","launch_date":"2023-10-18","launch_site_code":"AFETR","launch_vehicle":null,"mission":null,"orbit_class":"UNKNOWN","rcs_meters":null,"size_class":null,"mass_kg":null,"dimensions":null,"purposes":["comms"],"wikipedia_slug":null,"has_3d_model":false,"image_url":null,"decayed_at":null,"tle_current":{"epoch":"2026-05-25T00:28:50.193696Z","epoch_age_seconds":80277,"freshness":"FRESH","line1":"1 58092U 23160T   26145.02002539  .00000429  00000+0  25120-4 0  9993","line2":"2 58092  43.0049   7.3125 0001525 268.1267  91.9409 15.27571024144611","mean_motion":15.27571024,"eccentricity":0.0001525,"inclination_deg":43.0049,"raan_deg":7.3125,"arg_perigee_deg":268.1267,"mean_anomaly_deg":91.9409,"bstar":2.512e-5,"rev_number":14461,"period_min":94.267302624614,"perigee_km":482.02963856589,"apogee_km":484.12230852283,"semimajor_km":6861.2129735444,"source":"CELESTRAK","updated_at":"2026-05-25T13:38:18.524699Z"}}}